�N����,����,�~����,�C��,���x,�C��,����,���ϕ���,�ő�u�ԕ���,�ő厞����,���˗�,�I�_���x,�n�����x,�ő啗���N��,DTYPE
"22/03/09","00:10",0.0,1.9,85.9,1013.0,322.7,4.5,5.7,332.3,0.00,-0.2,7.3,"00:07:44",1
"22/03/09","00:20",0.0,1.9,86.2,1013.3,323.2,5.1,7.0,316.8,0.00,-0.1,7.4,"00:10:30",1
"22/03/09","00:30",0.0,2.0,86.4,1013.5,319.6,5.4,6.5,330.9,0.00,0.0,7.1,"00:22:50",1
"22/03/09","00:40",0.0,2.0,86.5,1013.3,306.2,3.7,6.0,314.5,0.00,0.0,7.1,"00:30:24",1
"22/03/09","00:50",0.0,1.8,86.7,1013.5,305.9,2.6,4.5,315.3,0.00,-0.1,7.3,"00:49:52",1
"22/03/09","01:00",0.0,1.6,86.8,1013.3,324.7,3.2,4.8,329.0,0.00,-0.3,7.1,"00:54:00",1
"22/03/09","01:10",0.0,1.5,87.2,1013.5,331.9,3.0,5.5,343.9,0.00,-0.4,7.1,"01:09:28",1
"22/03/09","01:20",0.0,1.4,87.5,1013.3,329.6,3.5,5.2,334.0,0.00,-0.4,7.0,"01:14:50",1
"22/03/09","01:30",0.0,1.5,88.0,1013.3,329.2,3.6,6.0,322.6,0.00,-0.2,7.0,"01:29:40",1
"22/03/09","01:40",0.0,1.9,88.1,1013.5,324.8,3.9,5.9,316.4,0.00,0.2,7.1,"01:39:46",1
"22/03/09","01:50",0.0,1.9,88.0,1013.5,316.5,3.9,6.2,316.2,0.00,0.2,7.0,"01:49:58",1
"22/03/09","02:00",0.0,1.9,87.9,1013.3,324.1,3.6,6.4,316.1,0.00,0.2,6.9,"01:53:38",1
"22/03/09","02:10",0.0,1.5,88.0,1013.3,328.3,2.6,3.6,335.7,0.00,-0.2,6.8,"02:06:16",1
"22/03/09","02:20",0.0,1.3,88.3,1013.3,329.9,2.7,4.2,331.9,0.00,-0.4,6.6,"02:13:04",1
"22/03/09","02:30",0.0,1.1,88.6,1013.3,325.1,3.0,4.5,321.9,0.00,-0.5,6.7,"02:28:16",1
"22/03/09","02:40",0.0,1.3,88.8,1013.3,311.5,3.2,4.2,330.2,0.00,-0.3,6.8,"02:30:56",1
"22/03/09","02:50",0.0,1.3,89.0,1013.0,313.6,3.6,4.3,312.1,0.00,-0.3,6.7,"02:42:16",1
"22/03/09","03:00",0.0,1.2,89.2,1013.3,318.8,2.5,3.7,321.5,0.00,-0.3,6.6,"02:51:36",1
"22/03/09","03:10",0.0,0.9,89.4,1013.3,318.7,2.1,3.1,337.4,0.00,-0.6,6.7,"03:09:28",1
"22/03/09","03:20",0.0,0.8,89.6,1013.3,320.7,2.1,3.2,316.0,0.00,-0.7,6.7,"03:10:32",1
"22/03/09","03:30",0.0,0.7,89.8,1012.8,316.3,1.3,2.6,300.3,0.00,-0.7,6.6,"03:26:32",1
"22/03/09","03:40",0.0,0.6,90.2,1012.8,340.3,1.6,2.8,338.8,0.00,-0.8,6.5,"03:39:44",1
"22/03/09","03:50",0.0,0.4,90.4,1012.8,325.2,2.0,2.9,331.4,0.00,-0.9,6.6,"03:43:04",1
"22/03/09","04:00",0.0,0.5,90.7,1013.0,331.2,2.6,3.4,333.0,0.00,-0.8,6.6,"03:59:36",1
"22/03/09","04:10",0.0,0.6,90.9,1013.0,323.1,2.6,4.2,337.1,0.00,-0.7,6.7,"04:05:46",1
"22/03/09","04:20",0.0,0.8,91.1,1013.0,325.2,2.8,4.8,326.9,0.00,-0.4,6.5,"04:17:04",1
"22/03/09","04:30",0.0,0.6,91.2,1013.3,328.1,2.5,4.2,334.7,0.00,-0.6,6.5,"04:29:44",1
"22/03/09","04:40",0.0,0.7,91.5,1013.0,332.6,2.7,4.7,325.7,0.00,-0.5,6.3,"04:34:24",1
"22/03/09","04:50",0.0,0.8,91.6,1013.3,327.3,2.5,4.2,324.8,0.00,-0.4,6.2,"04:46:08",1
"22/03/09","05:00",0.0,0.8,91.5,1013.3,327.6,2.6,5.0,320.5,0.00,-0.4,6.2,"04:50:42",1
"22/03/09","05:10",0.0,0.9,91.6,1013.3,321.7,2.7,3.6,331.4,0.00,-0.3,6.3,"05:00:24",1
"22/03/09","05:20",0.0,0.7,91.6,1013.8,326.5,2.2,3.1,341.1,0.00,-0.5,6.2,"05:17:44",1
"22/03/09","05:30",0.0,0.5,91.7,1013.5,323.7,1.8,3.1,328.3,0.00,-0.7,6.0,"05:22:00",1
"22/03/09","05:40",0.0,0.7,91.8,1014.2,320.0,2.6,3.9,316.7,0.00,-0.4,6.3,"05:35:52",1
"22/03/09","05:50",0.0,0.7,91.8,1014.0,305.2,2.2,3.5,314.9,0.00,-0.4,6.2,"05:44:56",1
"22/03/09","06:00",0.0,0.6,91.8,1014.0,312.8,1.6,2.9,306.9,0.00,-0.5,6.2,"05:53:12",1
"22/03/09","06:10",0.0,0.2,91.9,1014.2,311.5,1.3,2.5,315.0,0.00,-0.9,6.0,"06:03:44",1
"22/03/09","06:20",0.0,-0.3,91.9,1014.2,322.2,1.2,2.7,324.2,0.00,-1.4,6.1,"06:14:48",1
"22/03/09","06:30",0.0,-0.7,92.2,1014.0,299.3,0.5,1.4,313.7,0.00,-1.8,6.0,"06:26:56",1
"22/03/09","06:40",0.0,-0.7,92.5,1014.0,309.9,1.0,1.9,309.0,0.00,-1.7,5.9,"06:35:52",1
"22/03/09","06:50",0.0,-0.7,92.5,1014.0,316.2,1.2,2.5,333.4,0.00,-1.7,6.0,"06:49:12",1
"22/03/09","07:00",0.0,-0.5,92.7,1014.2,306.4,0.7,2.6,325.8,0.00,-1.5,5.9,"06:56:32",1
"22/03/09","07:10",0.0,-0.4,92.7,1014.2,317.6,1.7,2.8,324.0,0.00,-1.4,6.1,"07:08:24",1
"22/03/09","07:20",0.0,-0.4,92.9,1014.5,309.1,2.0,2.7,325.0,0.00,-1.4,5.8,"07:15:12",1
"22/03/09","07:30",0.0,-0.1,93.1,1014.7,272.7,0.7,2.1,318.2,0.01,-1.0,5.9,"07:20:24",1
"22/03/09","07:40",0.0,0.4,93.2,1014.7,301.2,1.5,2.5,317.9,0.02,-0.5,6.0,"07:39:12",1
"22/03/09","07:50",0.0,0.9,93.2,1014.7,305.0,1.8,2.7,314.6,0.04,0.0,5.9,"07:44:48",1
"22/03/09","08:00",0.0,1.6,93.2,1014.9,310.0,2.3,4.8,340.1,0.05,0.7,5.6,"07:54:08",1
"22/03/09","08:10",0.0,2.2,93.1,1015.4,303.1,2.2,2.9,341.2,0.07,1.2,5.9,"08:05:28",1
"22/03/09","08:20",0.0,2.8,92.7,1015.9,294.6,2.8,4.1,320.8,0.13,1.8,5.8,"08:12:24",1
"22/03/09","08:30",0.0,3.6,92.1,1015.9,284.6,2.2,3.2,301.2,0.17,2.5,5.8,"08:24:46",1
"22/03/09","08:40",0.0,4.7,91.1,1016.6,290.7,1.6,2.9,286.0,0.18,3.4,5.7,"08:33:40",1
"22/03/09","08:50",0.0,5.0,89.0,1016.8,285.0,1.8,3.1,330.3,0.20,3.4,5.8,"08:41:54",1
"22/03/09","09:00",0.0,5.3,86.7,1017.1,286.2,1.8,2.9,296.2,0.15,3.3,5.9,"08:55:04",1
"22/03/09","09:10",0.0,5.2,84.2,1017.1,250.4,0.8,1.6,217.3,0.14,2.8,5.8,"09:02:02",1
"22/03/09","09:20",0.0,5.5,81.7,1017.3,243.2,1.1,2.5,253.5,0.17,2.7,5.9,"09:13:34",1
"22/03/09","09:30",0.0,5.5,80.1,1017.3,237.5,0.8,1.8,255.2,0.13,2.4,6.0,"09:22:54",1
"22/03/09","09:40",0.0,6.3,78.7,1017.1,231.5,1.0,2.1,230.4,0.26,2.9,5.8,"09:38:30",1
"22/03/09","09:50",0.0,6.5,76.4,1017.1,210.5,1.0,1.9,127.9,0.20,2.7,6.0,"09:49:06",1
"22/03/09","10:00",0.0,6.8,74.5,1017.3,189.7,1.3,2.5,209.1,0.27,2.6,6.1,"09:55:44",1
"22/03/09","10:10",0.0,7.1,71.8,1017.3,196.8,1.7,3.2,229.5,0.31,2.4,6.0,"10:03:06",1
"22/03/09","10:20",0.0,7.4,70.5,1017.5,208.4,1.3,2.4,209.1,0.27,2.4,6.1,"10:10:52",1
"22/03/09","10:30",0.0,7.8,69.8,1017.3,196.2,1.1,2.5,200.2,0.31,2.7,5.9,"10:20:56",1
"22/03/09","10:40",0.0,8.4,68.0,1017.5,266.6,1.1,2.6,254.1,0.31,2.9,6.0,"10:34:32",1
"22/03/09","10:50",0.0,8.8,66.2,1017.5,347.1,0.8,1.3,238.6,0.41,2.9,6.2,"10:44:40",1
"22/03/09","11:00",0.0,10.2,64.8,1017.5,322.7,0.8,1.7,323.0,0.47,3.9,6.4,"10:54:40",1
"22/03/09","11:10",0.0,9.7,61.9,1017.3,120.4,1.2,2.6,118.8,0.41,2.8,6.4,"11:07:44",1
"22/03/09","11:20",0.0,10.5,61.3,1017.3,209.9,1.3,2.8,247.0,0.49,3.4,6.5,"11:18:00",1
"22/03/09","11:30",0.0,10.6,59.7,1017.1,154.2,1.1,3.3,128.5,0.39,3.1,6.5,"11:22:32",1
"22/03/09","11:40",0.0,11.6,56.6,1017.1,185.0,1.2,2.8,113.7,0.46,3.3,6.5,"11:37:12",1
"22/03/09","11:50",0.0,11.6,53.0,1016.6,186.5,1.1,3.2,246.0,0.35,2.4,7.0,"11:40:56",1
"22/03/09","12:00",0.0,11.8,51.8,1016.8,176.1,1.0,3.1,137.7,0.31,2.3,6.8,"11:55:36",1
"22/03/09","12:10",0.0,11.5,52.2,1016.6,144.3,1.5,2.7,139.7,0.21,2.1,7.0,"12:05:12",1
"22/03/09","12:20",0.0,11.5,51.7,1016.6,113.0,1.2,2.7,119.6,0.20,2.0,7.1,"12:13:28",1
"22/03/09","12:30",0.0,11.8,49.6,1016.4,4.6,1.0,2.0,94.8,0.23,1.7,7.2,"12:22:48",1
"22/03/09","12:40",0.0,12.4,48.4,1016.8,301.9,1.0,1.8,213.8,0.28,1.9,7.2,"12:38:48",1
"22/03/09","12:50",0.0,12.2,47.4,1016.6,255.2,1.3,4.2,335.1,0.21,1.4,7.2,"12:49:28",1
"22/03/09","13:00",0.0,11.7,46.0,1016.4,334.7,3.2,7.1,341.1,0.12,0.5,7.4,"12:58:24",1
"22/03/09","13:10",0.0,11.8,46.9,1016.6,337.3,4.0,6.7,315.1,0.16,0.9,7.5,"13:05:04",1
"22/03/09","13:20",0.0,12.3,48.7,1016.1,344.5,2.7,7.3,341.5,0.33,1.9,7.4,"13:10:16",1
"22/03/09","13:30",0.0,12.3,47.9,1016.6,36.2,1.1,2.6,358.3,0.23,1.6,7.5,"13:22:08",1
"22/03/09","13:40",0.0,13.0,47.8,1016.4,275.8,0.7,1.7,301.2,0.31,2.2,7.7,"13:31:20",1
"22/03/09","13:50",0.0,13.2,45.4,1016.4,108.4,1.1,2.4,112.1,0.42,1.7,7.7,"13:47:36",1
"22/03/09","14:00",0.0,13.2,43.7,1015.9,67.8,0.8,3.5,333.3,0.24,1.2,7.7,"13:56:32",1
"22/03/09","14:10",0.0,12.7,43.8,1015.9,320.8,1.8,4.5,324.8,0.17,0.7,7.7,"14:03:12",1
"22/03/09","14:20",0.0,12.9,43.5,1016.1,313.3,0.6,2.1,56.3,0.15,0.8,8.1,"14:18:24",1
"22/03/09","14:30",0.0,13.3,43.8,1016.1,310.8,1.2,2.0,295.0,0.21,1.3,7.9,"14:23:28",1
"22/03/09","14:40",0.0,13.9,41.6,1015.9,337.8,1.1,2.8,359.8,0.29,1.1,8.1,"14:30:02",1
"22/03/09","14:50",0.0,14.2,41.7,1015.9,344.2,1.3,3.1,351.7,0.34,1.4,8.2,"14:43:44",1
"22/03/09","15:00",0.0,14.9,42.3,1015.4,269.4,1.5,4.0,316.1,0.42,2.3,8.0,"14:50:48",1
"22/03/09","15:10",0.0,14.5,40.4,1015.6,303.0,2.8,7.2,332.3,0.37,1.3,8.4,"15:08:32",1
"22/03/09","15:20",0.0,12.9,43.1,1015.6,328.7,3.9,7.4,323.4,0.12,0.7,8.3,"15:12:08",1
"22/03/09","15:30",0.0,13.0,43.4,1015.6,330.2,2.2,4.8,335.9,0.11,0.9,8.4,"15:28:56",1
"22/03/09","15:40",0.0,13.0,43.7,1015.4,352.9,1.5,3.6,2.0,0.08,1.0,8.4,"15:38:40",1
"22/03/09","15:50",0.0,12.8,45.6,1015.6,342.9,2.5,5.5,348.5,0.08,1.4,8.5,"15:47:20",1
"22/03/09","16:00",0.0,12.7,46.2,1015.9,350.2,2.7,5.0,339.5,0.09,1.5,8.6,"15:55:12",1
"22/03/09","16:10",0.0,13.1,45.7,1015.9,341.2,2.3,4.0,347.3,0.16,1.7,8.5,"16:01:36",1
"22/03/09","16:20",0.0,14.0,44.0,1015.9,344.4,2.0,4.0,335.2,0.20,2.0,8.6,"16:17:28",1
"22/03/09","16:30",0.0,13.9,43.0,1015.9,347.9,2.0,4.4,348.8,0.17,1.6,8.8,"16:20:48",1
"22/03/09","16:40",0.0,13.6,43.2,1016.1,357.8,2.2,4.8,342.0,0.15,1.4,8.7,"16:36:40",1
"22/03/09","16:50",0.0,12.9,44.0,1015.9,352.2,2.5,5.5,0.4,0.09,1.0,8.8,"16:43:12",1
"22/03/09","17:00",0.0,13.0,44.5,1015.9,355.9,1.7,3.9,335.3,0.08,1.2,8.7,"16:54:48",1
"22/03/09","17:10",0.0,12.8,44.2,1015.6,357.4,1.8,3.1,353.0,0.06,1.0,8.7,"17:04:24",1
"22/03/09","17:20",0.0,12.6,44.5,1016.4,353.0,2.0,4.8,343.5,0.05,0.9,8.7,"17:14:32",1
"22/03/09","17:30",0.0,12.6,45.0,1016.1,353.0,1.8,3.7,351.3,0.04,1.0,8.7,"17:22:08",1
"22/03/09","17:40",0.0,12.3,45.4,1016.4,345.5,2.1,3.7,340.8,0.02,0.9,8.8,"17:34:24",1
"22/03/09","17:50",0.0,11.7,47.4,1016.6,341.9,3.6,7.1,348.2,0.01,0.9,8.6,"17:40:42",1
"22/03/09","18:00",0.0,11.2,48.4,1016.6,335.9,3.0,5.0,350.9,0.00,0.8,8.7,"17:56:24",1
"22/03/09","18:10",0.0,10.8,49.7,1016.4,335.6,3.5,5.8,330.9,0.00,0.8,8.7,"18:02:56",1
"22/03/09","18:20",0.0,10.4,51.2,1016.6,333.4,2.7,5.2,338.2,0.00,0.8,8.7,"18:11:04",1
"22/03/09","18:30",0.0,10.0,52.6,1016.6,334.7,2.3,3.3,343.3,0.00,0.8,8.7,"18:21:04",1
"22/03/09","18:40",0.0,9.6,54.0,1016.8,335.3,2.3,5.5,334.3,0.00,0.8,8.6,"18:31:28",1
"22/03/09","18:50",0.0,9.2,55.5,1016.8,321.7,2.0,3.4,337.1,0.00,0.8,8.7,"18:42:32",1
"22/03/09","19:00",0.0,8.6,58.0,1016.8,325.5,1.6,2.4,317.4,0.00,0.9,8.6,"18:55:12",1
"22/03/09","19:10",0.0,7.9,61.1,1016.8,338.1,1.5,2.8,331.1,0.00,0.9,8.8,"19:07:20",1
"22/03/09","19:20",0.0,7.1,64.4,1016.8,326.8,2.1,3.5,319.9,0.00,0.9,8.6,"19:14:08",1
"22/03/09","19:30",0.0,6.7,66.5,1017.1,323.0,2.0,2.7,327.7,0.00,0.9,8.5,"19:26:56",1
"22/03/09","19:40",0.0,6.2,68.0,1017.1,315.3,1.7,2.5,327.7,0.00,0.8,8.5,"19:30:40",1
"22/03/09","19:50",0.0,6.0,69.5,1017.1,325.4,1.6,2.5,327.9,0.00,0.9,8.5,"19:42:48",1
"22/03/09","20:00",0.0,5.9,70.6,1017.3,331.2,1.7,2.8,337.7,0.00,1.0,8.3,"19:55:36",1
"22/03/09","20:10",0.0,5.8,71.6,1017.3,332.9,1.7,2.6,326.7,0.00,1.1,8.3,"20:02:56",1
"22/03/09","20:20",0.0,5.6,72.2,1017.3,321.8,1.6,2.4,330.6,0.00,1.0,8.4,"20:12:24",1
"22/03/09","20:30",0.0,5.4,72.9,1017.3,328.9,1.2,2.1,327.9,0.00,1.0,8.4,"20:21:04",1
"22/03/09","20:40",0.0,5.3,73.3,1017.3,327.1,1.3,2.2,322.3,0.00,1.0,8.4,"20:35:28",1
"22/03/09","20:50",0.0,5.0,73.9,1017.5,314.5,1.2,2.0,323.8,0.00,0.8,8.3,"20:47:20",1
"22/03/09","21:00",0.0,4.7,74.3,1017.1,295.2,1.1,2.0,333.9,0.00,0.6,8.3,"20:53:12",1
"22/03/09","21:10",0.0,4.6,75.1,1017.5,292.0,1.7,2.6,314.7,0.00,0.6,8.4,"21:09:36",1
"22/03/09","21:20",0.0,5.3,75.7,1017.5,317.7,3.5,5.2,323.3,0.00,1.4,8.2,"21:19:36",1
"22/03/09","21:30",0.0,5.4,75.7,1017.5,313.4,3.1,5.0,313.5,0.00,1.5,8.2,"21:23:28",1
"22/03/09","21:40",0.0,5.3,76.1,1018.2,306.4,3.9,5.2,318.2,0.00,1.5,8.2,"21:38:16",1
"22/03/09","21:50",0.0,5.5,75.8,1018.2,321.8,4.6,6.3,313.3,0.00,1.6,8.1,"21:41:52",1
"22/03/09","22:00",0.0,5.4,75.7,1018.2,325.8,3.9,6.3,317.4,0.00,1.5,7.8,"21:51:44",1
"22/03/09","22:10",0.0,5.0,75.8,1018.0,316.1,2.3,4.2,317.2,0.00,1.1,7.9,"22:01:04",1
"22/03/09","22:20",0.0,4.5,76.4,1018.2,322.2,1.8,2.9,333.2,0.00,0.8,8.1,"22:13:28",1
"22/03/09","22:30",0.0,3.9,77.0,1018.0,275.4,1.5,1.8,295.6,0.00,0.3,7.7,"22:20:08",1
"22/03/09","22:40",0.0,3.8,77.6,1017.5,279.7,1.2,2.2,321.0,0.00,0.3,7.9,"22:36:56",1
"22/03/09","22:50",0.0,3.8,78.3,1018.0,296.5,1.3,2.6,296.4,0.00,0.4,7.7,"22:45:04",1
"22/03/09","23:00",0.0,3.6,79.1,1017.5,326.5,2.2,3.4,333.9,0.00,0.4,7.7,"22:57:04",1
"22/03/09","23:10",0.0,3.3,80.3,1017.3,317.1,2.8,4.0,324.2,0.00,0.3,7.7,"23:05:20",1
"22/03/09","23:20",0.0,3.3,81.3,1017.5,315.0,2.6,4.0,314.5,0.00,0.4,7.6,"23:10:48",1
"22/03/09","23:30",0.0,3.2,82.7,1017.3,298.1,2.1,4.0,317.6,0.00,0.6,7.6,"23:28:48",1
"22/03/09","23:40",0.0,3.4,83.4,1017.3,297.5,2.8,4.4,316.2,0.00,0.9,7.4,"23:34:32",1
"22/03/09","23:50",0.0,3.3,84.1,1017.8,314.4,2.7,3.3,313.6,0.00,0.9,7.5,"23:42:00",1
"22/03/09","24:00",0.0,3.3,84.8,1017.5,298.6,2.6,3.4,315.9,0.00,1.0,7.6,"23:50:40",1
